Regional Weather Roundup
Issued by NWS

Home | Current Version | Previous Version | Graphics & Text | Print | Product List | Glossary Off
Versions: 1 2 3 4 5 6 7 8 9 10 11 12 13 14 15 16 17 18 19 20 21 22 23 24 25 26 27 28 29 30 31 32 33 34 35 36 37 38 39 40 41 42 43 44 45 46 47 48 49 50

000
ASUS43 KMKX 311821
RWRWI

WISCONSIN REGIONAL WEATHER ROUNDUP
NATIONAL WEATHER SERVICE MILWAUKEE/SULLIVAN WI
100 PM CDT FRI OCT 31 2014

NOTE: "FAIR" INDICATES FEW OR NO CLOUDS BELOW 12,000 FEET WITH NO
SIGNIFICANT WEATHER AND/OR OBSTRUCTIONS TO VISIBILITY.

WIZ001-002-006>008-014>016-023>028-311900-
NORTHWEST WISCONSIN

CITY           SKY/WX    TMP DP  RH WIND       PRES   REMARKS
SUPERIOR ARPT  SUNNY     35  19  52 CALM      30.55F
6HR MIN TEMP:  27; 6HR MAX TEMP:  37;

ASHLAND        PTSUNNY   34  22  61 NE14      30.53F WCI  25
6HR MIN TEMP:  30; 6HR MAX TEMP:  38;

HAYWARD        MOSUNNY   35  18  49 NE12      30.50F WCI  27
6HR MIN TEMP:  26; 6HR MAX TEMP:  35;

SIREN          MOSUNNY   34  19  52 N6        30.53F WCI  29
6HR MIN TEMP:  28; 6HR MAX TEMP:  35;

CUMBERLAND     MOSUNNY   32  19  59 N12G18    30.50F WCI  23
RICE LAKE      MOSUNNY   37  19  48 N10G22    30.50F WCI  29
6HR MIN TEMP:  28; 6HR MAX TEMP:  37;

CHETEK         MOSUNNY   36  19  50 N8G18     30.49F WCI  30
6HR MIN TEMP:  28; 6HR MAX TEMP:  36;

LADYSMITH      CLOUDY    35  22  59 N16G23    30.48S WCI  25
6HR MIN TEMP:  28; 6HR MAX TEMP:  36;

EAU CLAIRE     PTSUNNY   39  19  44 N12       30.48S WCI  32
6HR MIN TEMP:  27; 6HR MAX TEMP:  40;

MENOMONIE      MOSUNNY   39  18  43 N14       30.50F WCI  30
6HR MIN TEMP:  28; 6HR MAX TEMP:  39;

NEW RICHMOND   SUNNY     37  17  44 N10G16    30.52F WCI  29
6HR MIN TEMP:  26; 6HR MAX TEMP:  37;

OSCEOLA        SUNNY     36  19  51 NW5       30.56F WCI  32
6HR MIN TEMP:  26; 6HR MAX TEMP:  37;

$$

WIZ003>005-009-010-017-018-311900-
NORTH CENTRAL WISCONSIN

CITY           SKY/WX    TMP DP  RH WIND       PRES   REMARKS
MANITOWISH WTR PTSUNNY   30  23  76 N12G22    30.42F WCI  20
6HR MIN TEMP:  25; 6HR MAX TEMP:  30;

ARBOR VITAE    FLURRIES  32  24  73 N14G22    30.41F WCI  22
6HR MIN TEMP:  29; 6HR MAX TEMP:  32;

WOODRUFF       FLURRIES  32  24  73 N14G22    30.41F WCI  22
6HR MIN TEMP:  29; 6HR MAX TEMP:  32;

RHINELANDER    CLOUDY    30  21  69 N12G21    30.40F WCI  20
6HR MIN TEMP:  26; 6HR MAX TEMP:  31; 6HR PCP: TRACE;

EAGLE RIVER    CLOUDY    30  21  68 N10G20    30.39S WCI  21
6HR MIN TEMP:  26; 6HR MAX TEMP:  32;

LAND O LAKES   SNOW      29  26  88 N13G18    30.41S VSB 1/2 WCI  19
6HR MIN TEMP:  27; 6HR MAX TEMP:  32;

PHILLIPS       CLOUDY    32  22  68 N15G21    30.42F WCI  22
6HR MIN TEMP:  26; 6HR MAX TEMP:  33;

TOMAHAWK       CLOUDY    32  22  68 N12G18    30.42S WCI  23
6HR MIN TEMP:  27; 6HR MAX TEMP:  32;

MEDFORD        CLOUDY    35  19  54 N18G24    30.41S WCI  24
6HR MIN TEMP:  28; 6HR MAX TEMP:  36;

MERRILL        CLOUDY    33  20  59 N17G32    30.40F WCI  22
6HR MIN TEMP:  28; 6HR MAX TEMP:  35;

$$

WIZ029-030-035-036-043>047-311900-
CENTRAL WISCONSIN

CITY           SKY/WX    TMP DP  RH WIND       PRES   REMARKS
WAUSAU         PTSUNNY   35  18  49 N20G26    30.39S WCI  24
6HR MIN TEMP:  29; 6HR MAX TEMP:  35;

MOSINEE        PTSUNNY   34  21  60 N16G29    30.40S WCI  23
MARSHFIELD     CLOUDY    37  20  50 N18G24    30.40F WCI  27
6HR MIN TEMP:  31; 6HR MAX TEMP:  37;

STEVENS POINT  CLOUDY    33  18  55 N17G23    30.39S WCI  22
6HR MIN TEMP:  28; 6HR MAX TEMP:  33;

WAUPACA        CLOUDY    38  19  46 N13G26    30.36S WCI  30
6HR MIN TEMP:  32; 6HR MAX TEMP:  39;

WAUTOMA        CLOUDY    37  20  50 N15G23    30.38R WCI  28
6HR MIN TEMP:  32; 6HR MAX TEMP:  37;

WISC RAPIDS    CLOUDY    37  19  48 N18G26    30.41S WCI  27
6HR MIN TEMP:  30; 6HR MAX TEMP:  38;

CAMP DOUGLAS   PTSUNNY   38  19  46 N16G32    30.41S WCI  28
6HR MIN TEMP:  32; 6HR MAX TEMP:  39;

$$

WIZ011>013-019>022-031-037>040-048>050-311900-
NORTHEAST WISCONSIN

CITY           SKY/WX    TMP DP  RH WIND       PRES   REMARKS
ANTIGO         CLOUDY    31  20  62 N24G31    30.36S WCI  18
6HR MIN TEMP:  27; 6HR MAX TEMP:  31;

SHAWANO        CLOUDY    39  21  48 N21G30    30.35S WCI  29
6HR MIN TEMP:  34; 6HR MAX TEMP:  40;

OCONTO         PTSUNNY   37  20  50 N26G39    30.33S WCI  26
6HR MIN TEMP:  33; 6HR MAX TEMP:  38;

STURGEON BAY   CLOUDY    36  21  55 N26G43    30.30R WCI  23
6HR MIN TEMP:  34; 6HR MAX TEMP:  36;

GREEN BAY      PTSUNNY   39  21  48 N26G40    30.31F WCI  28
6HR MIN TEMP:  34; 6HR MAX TEMP:  39;

MANITOWOC      CLOUDY    36  25  64 N22G33    30.27R WCI  25
6HR MIN TEMP:  34; 6HR MAX TEMP:  37; 6HR PCP: TRACE;

APPLETON       PTSUNNY   37  19  48 N29G40    30.32R WCI  25
CLINTONVILLE   CLOUDY    36  19  51 N17G30    30.35S WCI  25
OSHKOSH        CLOUDY    38  22  52 N18G31    30.31S WCI  28
6HR MIN TEMP:  33; 6HR MAX TEMP:  38;

$$

WIZ032>034-041-042-053>061-311900-
SOUTHWEST WISCONSIN

CITY           SKY/WX    TMP DP  RH WIND       PRES   REMARKS
LA CROSSE      PTSUNNY   41  20  43 N16G24    30.45F
6HR MIN TEMP:  31; 6HR MAX TEMP:  42;

SPARTA         CLOUDY    37  20  48 N14G23    30.44F WCI  29
6HR MIN TEMP:  32; 6HR MAX TEMP:  37;

VIROQUA        PTSUNNY   37  20  49 N20G26    30.39F WCI  27
6HR MIN TEMP:  30; 6HR MAX TEMP:  38;

BOSCOBEL       PTSUNNY   40  19  43 N18G26    30.41F WCI  31
6HR MIN TEMP:  34; 6HR MAX TEMP:  42;

PRAIRIE DU CHI MOSUNNY   39  18  42 N12G26    30.42S WCI  32
6HR MIN TEMP:  32; 6HR MAX TEMP:  39;

PLATTEVILLE    PTSUNNY   40  19  43 N20G29    30.36S WCI  31
6HR MIN TEMP:  32; 6HR MAX TEMP:  40;

$$

WIZ056-057-062-063-064-067-068-311900-
SOUTH CENTRAL WISCONSIN

CITY           SKY/WX    TMP DP  RH WIND       PRES   REMARKS
REEDSBURG      CLOUDY    35  20  54 N16G24    30.38R WCI  25
6HR MIN TEMP:  31; 6HR MAX TEMP:  37;

BARABOO/DELLS  CLOUDY    37  19  48 N18G25    30.37R WCI  27
6HR MIN TEMP:  32; 6HR MAX TEMP:  37;

LONE ROCK      PTSUNNY   44  17  33 N23G33    30.38S
6HR MIN TEMP:  37; 6HR MAX TEMP:  44;

MINERAL POINT  MOSUNNY   39  14  35 N23G35    30.33S WCI  29
MADISON        PTSUNNY   37  19  48 N25G32    30.34R WCI  25
6HR MIN TEMP:  33; 6HR MAX TEMP:  38;

MIDDLETON      CLOUDY    38  19  46 N21G26    30.34S WCI  27
6HR MIN TEMP:  34; 6HR MAX TEMP:  38;

WATERTOWN      CLOUDY    37  22  56 N21G28    30.28S WCI  26
6HR MIN TEMP:  32; 6HR MAX TEMP:  37;

MONROE         CLOUDY    36  23  60 N23G32    30.30S WCI  24
JANESVILLE     CLOUDY    37  19  48 N24G36    30.28R WCI  26
$$

WIZ051-052-058>065-066-070>072-311900-
SOUTHEAST WISCONSIN

CITY           SKY/WX    TMP DP  RH WIND       PRES   REMARKS
MILWAUKEE      CLOUDY    38  23  55 N31G44    30.21S WCI  25
6HR MIN TEMP:  35; 6HR MAX TEMP:  38; 6HR PCP: TRACE;

WAUKESHA       CLOUDY    34  21  60 N24G32    30.25S WCI  21
MILWAUKEE/TIMM CLOUDY    37  21  52 N25G41    30.24R WCI  26
RACINE         CLOUDY    38  25  59 N28G44    30.21R WCI  26
6HR MIN TEMP:  35; 6HR MAX TEMP:  38; 6HR PCP:  0.01;

BURLINGTON     CLOUDY    35  21  56 N22G37    30.24R WCI  24
6HR MIN TEMP:  32; 6HR MAX TEMP:  36;

KENOSHA        CLOUDY    39  25  57 N17G37    30.19S WCI  30
6HR MIN TEMP:  34; 6HR MAX TEMP:  39; 6HR PCP:  0.02;

FOND DU LAC    CLOUDY    38  21  50 N22G37    30.32R WCI  27
6HR MIN TEMP:  34; 6HR MAX TEMP:  38;

SHEBOYGAN      CLOUDY    37  24  59 N22G37    30.26R WCI  26
6HR MIN TEMP:  33; 6HR MAX TEMP:  37; 6HR PCP: TRACE;

WEST BEND      CLOUDY    36  23  60 N20G26    30.25S WCI  25
JUNEAU         CLOUDY    36  20  53 N23G32    30.30S WCI  24
6HR MIN TEMP:  32; 6HR MAX TEMP:  37;

$$

LSZ147-162-311900-
LAKE SUPERIOR

STATION/POSITION TIME  TEMP    WIND        PRES    WAVE
                       AIR SEA DIR/SP/G            HT/PER
                 (UTC) (F)     (DEG/KT/KT) (MB)    (FT/S)
W MID LAKE BUOY  1750   33 43  350/ 14/ 17 1033.8F   7/ 8
DEVILS ISLAND    1800   33      10/  9/ 11 1034.9F
PORT WING        1740   35      20/  8/ 12 1034.2F
SAXON HARBOR     1740   36      10/ 17/ 20 1032.8F
$$

LMZ867-665-643>646-311900-
LAKE MICHIGAN




USA.gov is the U.S. government's official web portal to all federal, state and local government web resources and services.